Location: Eaton Estates
(41.3089°N, 82.0057°W)
Time: 01:15:37
(UTC+00:00)

Meteor 2-13 Rocket - Pass Details

Date: 17 June 2021
Orbit: 935 x 958 km, 82.5° (Epoch: 02 August)

Event Time Altitude Azimuth Distance (km) Brightness Sun altitude
Exits shadow 06:30:02 51° 177° (S) 1,195 4.5 -23.8°
Maximum altitude 06:31:45 83° 97° (E) 970 4.4 -23.7°
Drops below altitude 10° 06:37:57 10° 9° (N) 2,700 7.9 -23.4°
Sets 06:40:27 0° 9° (N) 3,649 8.9 -23.2°
